Time,TemperatureF,DewpointF,PressureIn,WindDirection,WindDirectionDegrees,WindSpeedMPH,WindSpeedGustMPH,Humidity,HourlyPrecipIn,Conditions,Clouds,dailyrainin,SoftwareType,DateUTC
2013-05-19 00:13:00,62.8,57.0,29.79,ENE,64,5.0,6.0,82,0.00,,,0.00,weatherlink.com 1.10,2013-05-19 05:13:00,
2013-05-19 00:28:00,62.6,57.0,29.80,NE,44,4.0,7.0,82,0.00,,,0.00,weatherlink.com 1.10,2013-05-19 05:28:00,
2013-05-19 00:43:00,62.2,57.0,29.78,NE,49,5.0,12.0,83,0.00,,,0.00,weatherlink.com 1.10,2013-05-19 05:43:00,
2013-05-19 00:58:00,61.6,57.0,29.78,ENE,63,5.0,13.0,84,0.00,,,0.00,weatherlink.com 1.10,2013-05-19 05:58:00,
2013-05-19 01:13:00,61.1,57.0,29.77,ENE,67,5.0,12.0,85,0.00,,,0.00,weatherlink.com 1.10,2013-05-19 06:13:00,
2013-05-19 01:28:00,61.4,57.0,29.78,ENE,76,8.0,11.0,86,0.00,,,0.00,weatherlink.com 1.10,2013-05-19 06:28:00,
2013-05-19 01:43:00,61.8,58.0,29.77,NE,50,6.0,10.0,86,0.00,,,0.00,weatherlink.com 1.10,2013-05-19 06:43:00,
2013-05-19 01:58:00,61.9,58.0,29.77,ENE,70,6.0,10.0,86,0.00,,,0.00,weatherlink.com 1.10,2013-05-19 06:58:00,
2013-05-19 02:13:00,61.8,58.0,29.77,ENE,70,6.0,11.0,86,0.00,,,0.00,weatherlink.com 1.10,2013-05-19 07:13:00,
2013-05-19 02:28:00,61.3,57.0,29.77,NE,38,6.0,10.0,87,0.00,,,0.00,weatherlink.com 1.10,2013-05-19 07:28:00,
2013-05-19 02:43:00,61.1,58.0,29.78,ENE,71,2.0,9.0,88,0.00,,,0.00,weatherlink.com 1.10,2013-05-19 07:43:00,
2013-05-19 02:58:00,60.5,57.0,29.77,NE,34,3.0,7.0,89,0.07,,,0.07,weatherlink.com 1.10,2013-05-19 07:58:00,
2013-05-19 03:13:00,60.4,58.0,29.77,NE,44,6.0,8.0,90,0.08,,,0.08,weatherlink.com 1.10,2013-05-19 08:13:00,
2013-05-19 03:28:00,60.3,57.0,29.76,ENE,57,3.0,5.0,90,0.08,,,0.08,weatherlink.com 1.10,2013-05-19 08:28:00,
2013-05-19 03:43:00,60.5,58.0,29.75,NW,310,4.0,8.0,90,0.08,,,0.09,weatherlink.com 1.10,2013-05-19 08:43:00,
2013-05-19 03:58:00,59.1,56.0,29.75,NNW,329,1.0,8.0,89,0.02,,,0.09,weatherlink.com 1.10,2013-05-19 08:58:00,
2013-05-19 04:13:00,57.2,54.0,29.75,West,269,2.0,9.0,89,0.01,,,0.09,weatherlink.com 1.10,2013-05-19 09:13:00,
2013-05-19 04:28:00,56.8,54.0,29.75,ENE,66,3.0,13.0,90,0.01,,,0.09,weatherlink.com 1.10,2013-05-19 09:28:00,
2013-05-19 04:43:00,56.8,54.0,29.75,NNW,333,2.0,10.0,89,0.00,,,0.09,weatherlink.com 1.10,2013-05-19 09:43:00,
2013-05-19 04:58:00,56.8,54.0,29.74,NE,34,7.0,7.0,90,0.00,,,0.09,weatherlink.com 1.10,2013-05-19 09:58:00,
2013-05-19 05:13:00,57.0,54.0,29.77,NNW,341,3.0,7.0,90,0.20,,,0.29,weatherlink.com 1.10,2013-05-19 10:13:00,
2013-05-19 05:28:00,56.6,54.0,29.77,North,11,1.0,7.0,91,0.33,,,0.42,weatherlink.com 1.10,2013-05-19 10:28:00,
2013-05-19 05:43:00,56.7,55.0,29.75,NE,36,4.0,7.0,92,0.41,,,0.50,weatherlink.com 1.10,2013-05-19 10:43:00,
2013-05-19 05:58:00,56.8,55.0,29.72,NE,39,10.0,10.0,92,0.48,,,0.57,weatherlink.com 1.10,2013-05-19 10:58:00,
2013-05-19 06:14:00,57.2,55.0,29.71,NNE,32,7.0,12.0,92,0.27,,,0.61,weatherlink.com 1.10,2013-05-19 11:14:00,
2013-05-19 06:29:00,57.5,55.0,29.70,NE,41,4.0,13.0,92,0.21,,,0.64,weatherlink.com 1.10,2013-05-19 11:29:00,
2013-05-19 06:44:00,57.8,56.0,29.68,NNE,32,6.0,10.0,92,0.15,,,0.66,weatherlink.com 1.10,2013-05-19 11:44:00,
2013-05-19 06:59:00,58.2,56.0,29.68,NE,34,7.0,13.0,93,0.10,,,0.67,weatherlink.com 1.10,2013-05-19 11:59:00,
2013-05-19 07:14:00,58.3,56.0,29.68,ENE,67,7.0,9.0,93,0.06,,,0.67,weatherlink.com 1.10,2013-05-19 12:14:00,
2013-05-19 07:29:00,58.5,57.0,29.67,East,86,10.0,14.0,93,0.03,,,0.67,weatherlink.com 1.10,2013-05-19 12:29:00,
2013-05-19 07:44:00,59.1,57.0,29.66,ENE,76,7.0,10.0,93,0.01,,,0.67,weatherlink.com 1.10,2013-05-19 12:44:00,
2013-05-19 07:59:00,60.2,58.0,29.66,East,79,10.0,10.0,93,0.00,,,0.67,weatherlink.com 1.10,2013-05-19 12:59:00,
2013-05-19 08:14:00,60.9,59.0,29.66,ENE,75,6.0,9.0,93,0.00,,,0.67,weatherlink.com 1.10,2013-05-19 13:14:00,
2013-05-19 08:29:00,61.0,59.0,29.66,ENE,65,5.0,10.0,92,0.02,,,0.69,weatherlink.com 1.10,2013-05-19 13:29:00,
2013-05-19 08:44:00,61.2,59.0,29.66,ENE,75,4.0,9.0,92,0.02,,,0.69,weatherlink.com 1.10,2013-05-19 13:44:00,
2013-05-19 08:59:00,61.1,59.0,29.66,East,83,4.0,6.0,92,0.02,,,0.69,weatherlink.com 1.10,2013-05-19 13:59:00,
2013-05-19 09:14:00,61.3,59.0,29.67,East,82,5.0,6.0,91,0.02,,,0.69,weatherlink.com 1.10,2013-05-19 14:14:00,
2013-05-19 09:29:00,61.6,59.0,29.68,ESE,105,2.0,6.0,91,0.02,,,0.71,weatherlink.com 1.10,2013-05-19 14:29:00,
2013-05-19 09:44:00,61.6,59.0,29.69,East,86,2.0,3.0,92,0.05,,,0.74,weatherlink.com 1.10,2013-05-19 14:44:00,
2013-05-19 09:59:00,61.7,59.0,29.69,ESE,104,2.0,2.0,92,0.06,,,0.75,weatherlink.com 1.10,2013-05-19 14:59:00,
2013-05-19 10:14:00,62.0,60.0,29.70,East,96,5.0,5.0,92,0.16,,,0.85,weatherlink.com 1.10,2013-05-19 15:14:00,
2013-05-19 10:29:00,61.7,59.0,29.68,East,89,4.0,4.0,92,0.48,,,1.20,weatherlink.com 1.10,2013-05-19 15:29:00,
2013-05-19 10:44:00,61.9,60.0,29.68,East,82,2.0,4.0,92,0.53,,,1.27,weatherlink.com 1.10,2013-05-19 15:44:00,
2013-05-19 10:59:00,61.9,60.0,29.69,ESE,119,0.0,4.0,92,0.52,,,1.27,weatherlink.com 1.10,2013-05-19 15:59:00,
2013-05-19 11:14:00,62.3,60.0,29.69,East,89,3.0,4.0,91,0.40,,,1.27,weatherlink.com 1.10,2013-05-19 16:14:00,
2013-05-19 11:29:00,63.0,60.0,29.68,East,79,4.0,5.0,90,0.07,,,1.27,weatherlink.com 1.10,2013-05-19 16:29:00,
2013-05-19 11:44:00,63.3,60.0,29.68,ENE,74,4.0,5.0,89,0.00,,,1.27,weatherlink.com 1.10,2013-05-19 16:44:00,
2013-05-19 11:59:00,64.0,61.0,29.68,East,83,6.0,6.0,89,0.00,,,1.27,weatherlink.com 1.10,2013-05-19 16:59:00,
2013-05-19 12:14:00,64.9,61.0,29.66,East,87,7.0,9.0,87,0.00,,,1.27,weatherlink.com 1.10,2013-05-19 17:14:00,
2013-05-19 12:29:00,65.8,62.0,29.65,ENE,68,8.0,9.0,87,0.00,,,1.27,weatherlink.com 1.10,2013-05-19 17:29:00,
2013-05-19 12:44:00,68.1,64.0,29.65,East,79,7.0,9.0,86,0.00,,,1.27,weatherlink.com 1.10,2013-05-19 17:44:00,
2013-05-19 12:59:00,68.6,64.0,29.65,East,86,8.0,9.0,85,0.00,,,1.27,weatherlink.com 1.10,2013-05-19 17:59:00,
2013-05-19 13:14:00,67.5,63.0,29.64,East,80,5.0,8.0,85,0.01,,,1.28,weatherlink.com 1.10,2013-05-19 18:14:00,
2013-05-19 13:29:00,70.3,66.0,29.63,ENE,76,7.0,9.0,87,0.01,,,1.28,weatherlink.com 1.10,2013-05-19 18:29:00,
2013-05-19 13:44:00,70.3,65.0,29.63,East,79,6.0,8.0,83,0.01,,,1.28,weatherlink.com 1.10,2013-05-19 18:44:00,
2013-05-19 13:59:00,70.0,65.0,29.62,East,96,7.0,8.0,83,0.01,,,1.28,weatherlink.com 1.10,2013-05-19 18:59:00,
2013-05-19 14:14:00,68.7,65.0,29.63,East,92,4.0,6.0,87,0.08,,,1.36,weatherlink.com 1.10,2013-05-19 19:14:00,
2013-05-19 14:29:00,68.8,66.0,29.62,ESE,102,4.0,4.0,89,0.11,,,1.39,weatherlink.com 1.10,2013-05-19 19:29:00,
2013-05-19 14:44:00,71.8,67.0,29.62,East,92,3.0,6.0,84,0.11,,,1.39,weatherlink.com 1.10,2013-05-19 19:44:00,
2013-05-19 14:59:00,74.1,65.0,29.62,SE,140,2.0,7.0,72,0.11,,,1.39,weatherlink.com 1.10,2013-05-19 19:59:00,
2013-05-19 15:14:00,75.4,66.0,29.62,East,92,3.0,10.0,72,0.03,,,1.39,weatherlink.com 1.10,2013-05-19 20:14:00,
2013-05-19 15:29:00,75.7,64.0,29.62,ESE,109,3.0,6.0,67,0.00,,,1.39,weatherlink.com 1.10,2013-05-19 20:29:00,
2013-05-19 15:45:00,76.7,64.0,29.63,SW,218,3.0,12.0,64,0.00,,,1.39,weatherlink.com 1.10,2013-05-19 20:45:00,
2013-05-19 16:00:00,76.5,62.0,29.63,East,86,4.0,12.0,61,0.00,,,1.39,weatherlink.com 1.10,2013-05-19 21:00:00,
2013-05-19 16:15:00,76.5,62.0,29.64,SSW,201,5.0,11.0,62,0.00,,,1.39,weatherlink.com 1.10,2013-05-19 21:15:00,
2013-05-19 16:30:00,76.3,62.0,29.64,South,181,5.0,11.0,61,0.00,,,1.39,weatherlink.com 1.10,2013-05-19 21:30:00,
2013-05-19 16:45:00,76.4,63.0,29.64,South,170,2.0,10.0,63,0.00,,,1.39,weatherlink.com 1.10,2013-05-19 21:45:00,
2013-05-19 17:00:00,75.5,62.0,29.64,WSW,250,2.0,7.0,63,0.00,,,1.39,weatherlink.com 1.10,2013-05-19 22:00:00,
2013-05-19 17:15:00,75.1,62.0,29.64,WSW,254,4.0,9.0,63,0.00,,,1.39,weatherlink.com 1.10,2013-05-19 22:15:00,
2013-05-19 17:30:00,74.8,59.0,29.64,SSE,152,7.0,10.0,58,0.00,,,1.39,weatherlink.com 1.10,2013-05-19 22:30:00,
2013-05-19 17:45:00,75.5,59.0,29.63,SSW,194,2.0,5.0,57,0.00,,,1.39,weatherlink.com 1.10,2013-05-19 22:45:00,
2013-05-19 18:00:00,75.6,59.0,29.63,SSE,166,3.0,8.0,57,0.00,,,1.39,weatherlink.com 1.10,2013-05-19 23:00:00,
2013-05-19 18:15:00,75.4,58.0,29.62,ESE,106,0.0,7.0,55,0.00,,,1.39,weatherlink.com 1.10,2013-05-19 23:15:00,
2013-05-19 18:30:00,74.5,58.0,29.62,SE,139,1.0,3.0,57,0.00,,,1.39,weatherlink.com 1.10,2013-05-19 23:30:00,
2013-05-19 18:45:00,74.4,58.0,29.63,SSW,198,0.0,4.0,57,0.00,,,1.39,weatherlink.com 1.10,2013-05-19 23:45:00,
2013-05-19 19:00:00,73.9,59.0,29.63,SSE,159,0.0,3.0,60,0.00,,,1.39,weatherlink.com 1.10,2013-05-20 00:00:00,
2013-05-19 19:15:00,73.7,58.0,29.63,South,190,2.0,3.0,59,0.00,,,1.39,weatherlink.com 1.10,2013-05-20 00:15:00,
2013-05-19 19:30:00,73.2,62.0,29.63,ESE,117,1.0,1.0,67,0.00,,,1.39,weatherlink.com 1.10,2013-05-20 00:30:00,
2013-05-19 19:45:00,72.5,63.0,29.64,ESE,117,0.0,0.0,72,0.00,,,1.39,weatherlink.com 1.10,2013-05-20 00:45:00,
2013-05-19 20:00:00,71.9,62.0,29.64,ENE,78,1.0,1.0,72,0.00,,,1.39,weatherlink.com 1.10,2013-05-20 01:00:00,
2013-05-19 20:15:00,71.2,62.0,29.64,NE,53,6.0,6.0,72,0.00,,,1.39,weatherlink.com 1.10,2013-05-20 01:15:00,
2013-05-19 20:30:00,68.3,63.0,29.64,ENE,75,4.0,5.0,82,0.00,,,1.39,weatherlink.com 1.10,2013-05-20 01:30:00,
2013-05-19 20:45:00,67.3,62.0,29.64,ENE,73,9.0,9.0,83,0.00,,,1.39,weatherlink.com 1.10,2013-05-20 01:45:00,
2013-05-19 21:00:00,66.8,62.0,29.64,East,92,9.0,10.0,85,0.00,,,1.39,weatherlink.com 1.10,2013-05-20 02:00:00,
2013-05-19 21:15:00,66.4,62.0,29.64,East,87,8.0,11.0,84,0.00,,,1.39,weatherlink.com 1.10,2013-05-20 02:15:00,
2013-05-19 21:30:00,65.8,61.0,29.65,East,85,7.0,9.0,85,0.00,,,1.39,weatherlink.com 1.10,2013-05-20 02:30:00,
2013-05-19 21:45:00,65.3,61.0,29.66,ENE,74,7.0,7.0,86,0.00,,,1.39,weatherlink.com 1.10,2013-05-20 02:45:00,
2013-05-19 22:00:00,65.0,61.0,29.67,East,100,4.0,5.0,87,0.00,,,1.39,weatherlink.com 1.10,2013-05-20 03:00:00,
2013-05-19 22:15:00,64.8,61.0,29.66,East,92,3.0,5.0,87,0.00,,,1.39,weatherlink.com 1.10,2013-05-20 03:15:00,
2013-05-19 22:30:00,64.5,61.0,29.66,East,87,3.0,4.0,87,0.01,,,1.40,weatherlink.com 1.10,2013-05-20 03:30:00,
2013-05-19 22:45:00,64.3,60.0,29.65,East,85,2.0,3.0,87,0.01,,,1.40,weatherlink.com 1.10,2013-05-20 03:45:00,
2013-05-19 23:00:00,64.1,60.0,29.65,East,83,2.0,3.0,87,0.01,,,1.40,weatherlink.com 1.10,2013-05-20 04:00:00,
2013-05-19 23:15:00,64.0,60.0,29.65,East,85,2.0,3.0,87,0.01,,,1.40,weatherlink.com 1.10,2013-05-20 04:15:00,
2013-05-19 23:30:00,64.1,60.0,29.64,East,83,4.0,6.0,86,0.00,,,1.40,weatherlink.com 1.10,2013-05-20 04:30:00,
2013-05-19 23:45:00,63.8,60.0,29.64,East,82,6.0,6.0,87,0.00,,,1.40,weatherlink.com 1.10,2013-05-20 04:45:00,